DBR668 KSJC-KSEZ

Flight info

Callsign DBR668
Flight time 1h 17m
Altitude 41000
Route SPTNS1 JFREE LOSHN PMD J6 DRK V264 JUWSO
Aircraft CL30/M-SDE3FGJ4P2RWXY/SD1

Departure

Time 2026-04-24 15:24
Airport Norman Y. Mineta San Jose International Airport (KSJC)

Arrival

Time 2026-04-24 16:42
Airport Sedona Airport (KSEZ)
Time Latitude Longitude Altitude Speed Heading
2026-04-24 15:09 37.35790 -121.93088 70 ft 0 kts 230°
2026-04-24 15:15 37.35796 -121.93077 70 ft 2 kts 230°
2026-04-24 15:16 37.35805 -121.93064 70 ft 2 kts 236°
2026-04-24 15:16 37.35812 -121.93043 70 ft 3 kts 260°
2026-04-24 15:16 37.35811 -121.93018 70 ft 3 kts 285°
2026-04-24 15:16 37.35802 -121.92995 70 ft 3 kts 306°
2026-04-24 15:17 37.35787 -121.92977 70 ft 3 kts 320°
2026-04-24 15:17 37.35782 -121.92972 70 ft 0 kts 320°
2026-04-24 15:18 37.35783 -121.92972 70 ft 0 kts 320°
2026-04-24 15:19 37.35798 -121.92974 70 ft 5 kts 34°
2026-04-24 15:19 37.35790 -121.92937 70 ft 6 kts 137°
2026-04-24 15:19 37.35750 -121.92893 70 ft 11 kts 139°
2026-04-24 15:19 37.35674 -121.92809 70 ft 18 kts 139°
2026-04-24 15:20 37.35578 -121.92703 70 ft 18 kts 139°
2026-04-24 15:20 37.35486 -121.92603 70 ft 17 kts 139°
2026-04-24 15:20 37.35425 -121.92525 70 ft 8 kts 84°
2026-04-24 15:20 37.35457 -121.92474 70 ft 7 kts 47°
2026-04-24 15:21 37.35493 -121.92426 70 ft 7 kts 47°
2026-04-24 15:21 37.35526 -121.92380 70 ft 7 kts 47°
2026-04-24 15:21 37.35555 -121.92340 70 ft 6 kts 47°
2026-04-24 15:21 37.35568 -121.92323 70 ft 0 kts 47°
2026-04-24 15:22 37.35570 -121.92320 70 ft 2 kts 47°
2026-04-24 15:23 37.35617 -121.92275 70 ft 3 kts 321°
2026-04-24 15:23 37.35859 -121.92541 70 ft 92 kts 319°
2026-04-24 15:23 37.36595 -121.93348 272 ft 176 kts 319°
2026-04-24 15:24 37.40157 -121.96210 1856 ft 217 kts 356°
2026-04-24 15:25 37.42433 -121.94777 2662 ft 231 kts 51°
2026-04-24 15:25 37.42470 -121.90314 3895 ft 239 kts 122°
2026-04-24 15:26 37.38953 -121.85294 5825 ft 266 kts 137°
2026-04-24 15:27 37.34700 -121.80566 7713 ft 277 kts 139°
2026-04-24 15:27 37.30297 -121.75678 9595 ft 286 kts 139°
2026-04-24 15:28 37.23932 -121.68626 12627 ft 325 kts 140°
2026-04-24 15:29 37.20510 -121.64786 14232 ft 336 kts 139°
2026-04-24 15:30 37.15185 -121.58781 16645 ft 349 kts 140°
2026-04-24 15:31 37.07831 -121.50381 19854 ft 367 kts 138°
2026-04-24 15:32 37.00608 -121.40934 23064 ft 384 kts 135°
2026-04-24 15:33 36.93238 -121.30886 26266 ft 402 kts 136°
2026-04-24 15:33 36.87534 -121.23096 28660 ft 408 kts 137°
2026-04-24 15:34 36.83636 -121.17789 29810 ft 419 kts 137°
2026-04-24 15:35 36.77629 -121.09639 31317 ft 433 kts 137°
2026-04-24 15:35 36.73522 -121.04073 32320 ft 438 kts 137°
2026-04-24 15:35 36.71451 -121.01267 32821 ft 440 kts 137°
2026-04-24 15:36 36.69374 -120.98453 33322 ft 441 kts 138°
2026-04-24 15:36 36.65135 -120.92972 34321 ft 440 kts 141°
2026-04-24 15:36 36.62942 -120.90293 34823 ft 439 kts 141°
2026-04-24 15:37 36.60764 -120.87687 35317 ft 438 kts 142°
2026-04-24 15:37 36.58556 -120.85078 35816 ft 437 kts 143°
2026-04-24 15:37 36.56342 -120.82482 36316 ft 436 kts 143°
2026-04-24 15:37 36.54132 -120.79902 36815 ft 434 kts 143°
2026-04-24 15:38 36.51927 -120.77335 37315 ft 432 kts 143°
2026-04-24 15:38 36.49766 -120.74823 37806 ft 430 kts 143°
2026-04-24 15:38 36.47579 -120.72284 38171 ft 431 kts 144°
2026-04-24 15:38 36.45376 -120.69734 38442 ft 434 kts 144°
2026-04-24 15:39 36.43152 -120.67164 38697 ft 438 kts 144°
2026-04-24 15:39 36.40898 -120.64559 38951 ft 441 kts 144°
2026-04-24 15:39 36.38647 -120.61960 39202 ft 444 kts 144°
2026-04-24 15:39 36.36403 -120.59367 39450 ft 446 kts 144°
2026-04-24 15:40 36.34125 -120.56735 39701 ft 448 kts 144°
2026-04-24 15:40 36.31852 -120.54111 39950 ft 450 kts 144°
2026-04-24 15:40 36.29548 -120.51449 40202 ft 451 kts 144°
2026-04-24 15:40 36.27247 -120.48791 40452 ft 453 kts 144°
2026-04-24 15:41 36.24938 -120.46126 40702 ft 454 kts 144°
2026-04-24 15:41 36.22621 -120.43453 40868 ft 457 kts 144°
2026-04-24 15:41 36.20300 -120.40781 40977 ft 462 kts 143°
2026-04-24 15:41 36.17934 -120.38060 41041 ft 467 kts 144°
2026-04-24 15:42 36.13099 -120.32510 41039 ft 479 kts 143°
2026-04-24 15:42 36.08147 -120.26832 41037 ft 490 kts 143°
2026-04-24 15:43 36.03134 -120.21085 41036 ft 497 kts 143°
2026-04-24 15:43 35.98005 -120.15205 41037 ft 501 kts 143°
2026-04-24 15:44 35.92969 -120.09422 41038 ft 490 kts 143°
2026-04-24 15:44 35.88020 -120.03749 41039 ft 486 kts 143°
2026-04-24 15:45 35.83324 -119.97631 41041 ft 493 kts 136°
2026-04-24 15:45 35.79006 -119.91076 41040 ft 496 kts 134°
2026-04-24 15:46 35.74794 -119.84284 41035 ft 497 kts 133°
2026-04-24 15:46 35.70668 -119.77499 41030 ft 498 kts 133°
2026-04-24 15:47 35.66518 -119.70653 41028 ft 498 kts 133°
2026-04-24 15:47 35.62378 -119.63843 41020 ft 499 kts 133°
2026-04-24 15:48 35.58208 -119.57018 41020 ft 499 kts 133°
2026-04-24 15:48 35.54012 -119.50183 41021 ft 499 kts 133°
2026-04-24 15:49 35.49842 -119.43422 41020 ft 499 kts 133°
2026-04-24 15:49 35.45630 -119.36617 41020 ft 500 kts 133°
2026-04-24 15:50 35.41417 -119.29833 41022 ft 501 kts 134°
2026-04-24 15:50 35.37185 -119.23038 41021 ft 501 kts 134°
2026-04-24 15:51 35.32964 -119.16277 41020 ft 502 kts 134°
2026-04-24 15:51 35.28705 -119.09472 41021 ft 502 kts 134°
2026-04-24 15:52 35.24475 -119.02726 41021 ft 502 kts 134°
2026-04-24 15:52 35.20217 -118.95950 41023 ft 503 kts 134°
2026-04-24 15:53 35.15932 -118.89146 41026 ft 503 kts 134°
2026-04-24 15:53 35.11662 -118.82379 41036 ft 503 kts 134°
2026-04-24 15:54 35.07384 -118.75612 41051 ft 503 kts 134°
2026-04-24 15:54 35.03112 -118.68870 41055 ft 504 kts 134°
2026-04-24 15:55 34.98814 -118.62100 41055 ft 504 kts 134°
2026-04-24 15:55 34.94530 -118.55363 41055 ft 505 kts 135°
2026-04-24 15:56 34.90223 -118.48603 41051 ft 505 kts 135°
2026-04-24 15:56 34.86630 -118.42973 41046 ft 505 kts 135°
2026-04-24 15:57 34.81599 -118.35106 41026 ft 506 kts 135°
2026-04-24 15:57 34.77271 -118.28352 41016 ft 506 kts 135°
2026-04-24 15:58 34.73655 -118.22719 41011 ft 507 kts 135°
2026-04-24 15:58 34.69327 -118.15989 41008 ft 507 kts 135°
2026-04-24 15:59 34.64974 -118.09170 41001 ft 511 kts 132°
2026-04-24 15:59 34.63337 -118.05351 40998 ft 525 kts 115°
2026-04-24 15:59 34.62510 -118.00996 41003 ft 533 kts 100°
2026-04-24 16:00 34.62590 -117.91927 41002 ft 539 kts 84°
2026-04-24 16:00 34.63784 -117.82981 41002 ft 539 kts 78°
2026-04-24 16:01 34.65338 -117.74079 40996 ft 539 kts 77°
2026-04-24 16:01 34.66898 -117.65164 40998 ft 538 kts 78°
2026-04-24 16:02 34.68305 -117.56277 41006 ft 537 kts 79°
2026-04-24 16:02 34.69522 -117.47363 41015 ft 537 kts 81°
2026-04-24 16:03 34.70557 -117.38379 41021 ft 537 kts 82°
2026-04-24 16:03 34.71505 -117.29380 41021 ft 536 kts 83°
2026-04-24 16:04 34.72416 -117.20381 41016 ft 536 kts 83°
2026-04-24 16:04 34.73315 -117.11373 41006 ft 536 kts 83°
2026-04-24 16:05 34.74653 -116.97886 40988 ft 536 kts 83°
2026-04-24 16:06 34.75987 -116.84406 40975 ft 536 kts 83°
2026-04-24 16:07 34.77318 -116.70889 40971 ft 536 kts 83°
2026-04-24 16:07 34.78638 -116.57378 40974 ft 536 kts 83°
2026-04-24 16:08 34.79682 -116.43884 40988 ft 535 kts 88°
2026-04-24 16:09 34.79845 -116.30316 40981 ft 535 kts 91°
2026-04-24 16:09 34.79760 -116.21242 40981 ft 535 kts 92°
2026-04-24 16:11 34.79406 -115.98637 40987 ft 535 kts 92°
2026-04-24 16:11 34.79260 -115.89621 40977 ft 536 kts 92°
2026-04-24 16:12 34.79046 -115.76048 40971 ft 536 kts 92°
2026-04-24 16:13 34.78834 -115.62411 40963 ft 536 kts 92°
2026-04-24 16:14 34.78546 -115.44303 40950 ft 536 kts 92°
2026-04-24 16:14 34.78318 -115.30707 40814 ft 539 kts 92°
2026-04-24 16:15 34.78265 -115.27663 40558 ft 543 kts 92°
2026-04-24 16:15 34.78075 -115.16993 39530 ft 538 kts 93°
2026-04-24 16:16 34.77907 -115.07880 38628 ft 537 kts 93°
2026-04-24 16:16 34.77821 -115.03386 38182 ft 537 kts 93°
2026-04-24 16:17 34.77550 -114.89749 36835 ft 538 kts 93°
2026-04-24 16:17 34.77361 -114.80633 35931 ft 537 kts 93°
2026-04-24 16:18 34.77165 -114.71566 35032 ft 535 kts 93°
2026-04-24 16:18 34.76964 -114.62568 34138 ft 536 kts 93°
2026-04-24 16:18 34.76859 -114.58034 33687 ft 535 kts 93°
2026-04-24 16:19 34.76645 -114.49016 32786 ft 531 kts 93°
2026-04-24 16:19 34.76538 -114.44532 32335 ft 528 kts 92°
2026-04-24 16:20 34.76326 -114.35698 31437 ft 521 kts 92°
2026-04-24 16:20 34.76109 -114.26939 30534 ft 514 kts 92°
2026-04-24 16:20 34.76000 -114.22610 30083 ft 510 kts 92°
2026-04-24 16:21 34.75778 -114.14038 29179 ft 502 kts 92°
2026-04-24 16:21 34.75666 -114.09806 28728 ft 498 kts 92°
2026-04-24 16:21 34.75556 -114.05658 28282 ft 494 kts 92°
2026-04-24 16:22 34.75444 -114.01494 27832 ft 493 kts 92°
2026-04-24 16:22 34.75213 -113.93177 27084 ft 489 kts 92°
2026-04-24 16:22 34.75096 -113.89039 26969 ft 489 kts 92°
2026-04-24 16:23 34.74978 -113.84905 26944 ft 489 kts 92°
2026-04-24 16:23 34.74860 -113.80809 26954 ft 489 kts 92°
2026-04-24 16:23 34.74738 -113.76648 26963 ft 490 kts 92°
2026-04-24 16:24 34.74491 -113.68363 26972 ft 490 kts 92°
2026-04-24 16:24 34.74367 -113.64270 26976 ft 490 kts 92°
2026-04-24 16:24 34.74239 -113.60117 26979 ft 490 kts 92°
2026-04-24 16:24 34.74110 -113.55971 26983 ft 490 kts 92°
2026-04-24 16:25 34.73981 -113.51854 26986 ft 490 kts 92°
2026-04-24 16:25 34.73850 -113.47706 26990 ft 490 kts 92°
2026-04-24 16:25 34.73717 -113.43559 26994 ft 490 kts 92°
2026-04-24 16:26 34.73448 -113.35288 26691 ft 487 kts 92°
2026-04-24 16:26 34.73313 -113.31186 26265 ft 481 kts 92°
2026-04-24 16:26 34.73045 -113.23188 25373 ft 470 kts 92°
2026-04-24 16:27 34.72910 -113.19218 24920 ft 466 kts 92°
2026-04-24 16:27 34.72776 -113.15310 24469 ft 461 kts 93°
2026-04-24 16:27 34.72641 -113.11429 24018 ft 457 kts 93°
2026-04-24 16:27 34.72506 -113.07587 23567 ft 453 kts 93°
2026-04-24 16:28 34.72372 -113.03822 23121 ft 448 kts 93°
2026-04-24 16:28 34.72237 -113.00039 22669 ft 444 kts 93°
2026-04-24 16:28 34.71966 -112.92581 21764 ft 436 kts 93°
2026-04-24 16:29 34.71833 -112.88958 21319 ft 432 kts 93°
2026-04-24 16:29 34.71697 -112.85319 20868 ft 429 kts 93°
2026-04-24 16:29 34.71427 -112.78141 19965 ft 416 kts 93°
2026-04-24 16:30 34.71170 -112.71320 19066 ft 397 kts 93°
2026-04-24 16:30 34.71043 -112.67978 18611 ft 391 kts 93°
2026-04-24 16:30 34.70918 -112.64725 18162 ft 385 kts 93°
2026-04-24 16:31 34.70791 -112.61475 17708 ft 381 kts 93°
2026-04-24 16:31 34.70666 -112.58305 17262 ft 377 kts 93°
2026-04-24 16:31 34.70540 -112.55132 16810 ft 373 kts 93°
2026-04-24 16:31 34.70445 -112.51986 16359 ft 370 kts 90°
2026-04-24 16:32 34.70515 -112.49920 16061 ft 368 kts 86°
2026-04-24 16:32 34.70939 -112.45849 15467 ft 363 kts 80°
2026-04-24 16:32 34.71420 -112.42867 15017 ft 353 kts 77°
2026-04-24 16:32 34.71918 -112.39971 14565 ft 345 kts 80°
2026-04-24 16:33 34.72129 -112.37134 14122 ft 337 kts 88°
2026-04-24 16:33 34.72150 -112.34306 13681 ft 332 kts 91°
2026-04-24 16:33 34.72082 -112.31517 13230 ft 327 kts 93°
2026-04-24 16:33 34.71981 -112.28771 12779 ft 323 kts 93°
2026-04-24 16:34 34.71881 -112.26087 12331 ft 319 kts 93°
2026-04-24 16:34 34.71792 -112.23391 11882 ft 316 kts 93°
2026-04-24 16:34 34.71719 -112.20733 11426 ft 312 kts 92°
2026-04-24 16:34 34.71666 -112.18137 10980 ft 309 kts 92°
2026-04-24 16:35 34.71628 -112.15522 10527 ft 305 kts 91°
2026-04-24 16:35 34.71603 -112.12977 10079 ft 301 kts 91°
2026-04-24 16:35 34.71587 -112.10442 9626 ft 293 kts 91°
2026-04-24 16:35 34.71578 -112.08027 9216 ft 273 kts 91°
2026-04-24 16:36 34.71573 -112.05866 8767 ft 247 kts 91°
2026-04-24 16:36 34.71570 -112.03846 8310 ft 232 kts 91°
2026-04-24 16:36 34.71567 -112.01932 8075 ft 219 kts 91°
2026-04-24 16:36 34.71562 -112.00140 8009 ft 211 kts 91°
2026-04-24 16:37 34.71557 -111.98382 8028 ft 198 kts 91°
2026-04-24 16:37 34.71555 -111.96734 8000 ft 193 kts 91°
2026-04-24 16:37 34.71703 -111.95671 7972 ft 194 kts 71°
2026-04-24 16:37 34.72770 -111.93928 8016 ft 196 kts 48°
2026-04-24 16:38 34.73701 -111.92717 7999 ft 193 kts 46°
2026-04-24 16:38 34.74621 -111.91540 7881 ft 185 kts 46°
2026-04-24 16:38 34.75478 -111.90449 7668 ft 175 kts 46°
2026-04-24 16:38 34.76306 -111.89397 7453 ft 168 kts 46°
2026-04-24 16:39 34.77058 -111.88443 7234 ft 152 kts 46°
2026-04-24 16:39 34.77796 -111.87525 6962 ft 150 kts 45°
2026-04-24 16:39 34.78541 -111.86638 6736 ft 149 kts 44°
2026-04-24 16:39 34.79279 -111.85762 6503 ft 150 kts 45°
2026-04-24 16:40 34.80025 -111.84867 6247 ft 150 kts 45°
2026-04-24 16:40 34.80737 -111.83991 6012 ft 143 kts 46°
2026-04-24 16:40 34.81426 -111.83138 5726 ft 140 kts 46°
2026-04-24 16:40 34.82096 -111.82291 5462 ft 138 kts 46°
2026-04-24 16:41 34.82763 -111.81463 5245 ft 139 kts 45°
2026-04-24 16:41 34.83443 -111.80612 5039 ft 140 kts 46°
2026-04-24 16:41 34.84119 -111.79768 4899 ft 136 kts 45°
2026-04-24 16:41 34.84752 -111.78982 4838 ft 117 kts 46°
2026-04-24 16:42 34.85112 -111.78533 4838 ft 23 kts 45°
2026-04-24 16:42 34.85148 -111.78490 4838 ft 5 kts 32°
2026-04-24 16:42 34.85171 -111.78492 4838 ft 3 kts 322°
2026-04-24 16:42 34.85192 -111.78521 4838 ft 4 kts 285°
2026-04-24 16:43 34.85184 -111.78548 4838 ft 6 kts 236°
2026-04-24 16:43 34.85141 -111.78603 4838 ft 11 kts 225°
2026-04-24 16:43 34.85091 -111.78664 4838 ft 9 kts 225°
2026-04-24 16:43 34.85045 -111.78722 4838 ft 11 kts 225°
2026-04-24 16:44 34.84998 -111.78779 4838 ft 9 kts 226°
2026-04-24 16:44 34.84961 -111.78826 4838 ft 7 kts 226°
2026-04-24 16:44 34.84932 -111.78862 4838 ft 7 kts 226°
2026-04-24 16:44 34.84885 -111.78918 4838 ft 11 kts 224°
2026-04-24 16:45 34.84889 -111.78974 4838 ft 5 kts 288°
2026-04-24 16:45 34.84869 -111.79014 4838 ft 5 kts 227°
2026-04-24 16:45 34.84872 -111.79050 4838 ft 6 kts 313°
2026-04-24 16:45 34.84871 -111.79085 4838 ft 5 kts 225°
2026-04-24 16:46 34.84866 -111.79091 4838 ft 0 kts 225°